This is the latest recevied weather packets stored in our database for station/object KO6MEX-13. If no packets are shown the sender has not sent any weather packets the latest 10 day(s).
| Time | Temp. | Humidity | Pressure | Rain* | Wind** | Luminosity | Snow |
|---|---|---|---|---|---|---|---|
| 1777923109 | 17.22° C | 59% | 1019.2 hPa | 0 mm | - | 801 W/m² | - |
| 1777922806 | 17.78° C | 58% | 1018.6 hPa | 0 mm | - | 812 W/m² | - |
| 1777922504 | 17.78° C | 58% | 1018.7 hPa | 0 mm | - | 832 W/m² | - |
| 1777922202 | 17.78° C | 57% | 1018.9 hPa | 0 mm | - | 866 W/m² | - |
| 1777921898 | 17.78° C | 58% | 1019 hPa | 0 mm | - | 815 W/m² | - |
| 1777921594 | 17.78° C | 59% | 1019 hPa | 0 mm | - | 829 W/m² | - |
| 1777921292 | 17.78° C | 59% | 1019 hPa | 0 mm | - | 844 W/m² | - |
| 1777920988 | 18.33° C | 58% | 1019 hPa | 0 mm | - | 822 W/m² | - |
| 1777920685 | 17.78° C | 58% | 1019 hPa | 0 mm | - | 813 W/m² | - |
| 1777920380 | 17.78° C | 59% | 1018.8 hPa | 0 mm | - | 772 W/m² | - |
| 1777920075 | 17.78° C | 58% | 1018.9 hPa | 0 mm | - | 754 W/m² | - |
| 1777919773 | 18.33° C | 56% | 1019.1 hPa | 0 mm | - | 802 W/m² | - |
| 1777919471 | 17.78° C | 56% | 1019 hPa | 0 mm | - | 822 W/m² | - |
| 1777919167 | 17.78° C | 58% | 1019.2 hPa | 0 mm | - | 862 W/m² | - |
| 1777918865 | 17.78° C | 57% | 1019.2 hPa | 0 mm | - | 888 W/m² | - |
| 1777918562 | 17.78° C | 57% | 1019 hPa | 0 mm | - | 878 W/m² | - |
| 1777918260 | 17.78° C | 57% | 1019.1 hPa | 0 mm | - | 870 W/m² | - |
| 1777917959 | 18.33° C | 56% | 1019.1 hPa | 0 mm | - | 857 W/m² | - |
| 1777917657 | 17.78° C | 58% | 1019.2 hPa | 0 mm | - | 855 W/m² | - |
| 1777917354 | 18.33° C | 56% | 1019.2 hPa | 0 mm | - | 843 W/m² | - |
| 1777917051 | 17.78° C | 59% | 1019.2 hPa | 0 mm | - | 822 W/m² | - |
| 1777916749 | 18.33° C | 55% | 1019.2 hPa | 0 mm | - | 809 W/m² | - |
| 1777916445 | 17.78° C | 57% | 1019.1 hPa | 0 mm | - | 820 W/m² | - |
| 1777916142 | 17.22° C | 58% | 1019.1 hPa | 0 mm | - | 803 W/m² | - |
| 1777915840 | 17.22° C | 58% | 1019.1 hPa | 0 mm | - | 793 W/m² | - |
* Rain latest hour (hover to see other rain measurements)
** Current wind speed in m/s (hover to see current wind gust speed)